Regional Weather Roundup
Issued by NWS

Home | Current Version | Previous Version | Text Only | Print | Product List | Glossary On
Versions: 1 2 3 4 5 6 7 8 9 10 11 12 13 14 15 16 17 18 19 20 21 22 23 24 25 26 27 28 29 30 31 32 33 34 35 36 37 38 39 40 41 42 43 44 45 46 47 48 49 50
000
ASUS43 KLMK 230110
RWRKY
KENTUCKY REGIONAL WEATHER ROUNDUP
NATIONAL WEATHER SERVICE LOUISVILLE KY
900 PM EDT THU OCT 22 2020

NOTE "FAIR" INDICATES FEW OR NO CLOUDS BELOW 12,000 FEET
WITH NO SIGNIFICANT WEATHER AND/OR OBSTRUCTIONS TO VISIBILITY.

KYZ001>023-026-027-061>063-070>075-230200-
WESTERN AND SOUTH CENTRAL KENTUCKY

CITY           SKY/WX    TMP DP  RH WIND       PRES   REMARKS
PADUCAH        CLEAR     72  62  71 SE7       30.01R
HENDERSON      CLEAR     70  61  73 S6        30.04R
OWENSBORO      CLEAR     70  62  76 S6        30.05R
HOPKINSVILLE   CLEAR     75  61  62 SE5       30.06R
BOWLING GREEN  CLEAR     71  61  70 CALM      30.08R
GLASGOW        CLEAR     65  61  86 CALM      30.10R
$$

KYZ024-025-028>034-038-045-046-053-230200-
NORTH CENTRAL KENTUCKY

CITY           SKY/WX    TMP DP  RH WIND       PRES   REMARKS
LOUISVILLE/SDF CLEAR     72  61  68 SE7       30.07S
LOUISVILLE/LOU CLEAR     73  59  61 SE3       30.07S
FORT KNOX      CLEAR     66  60  81 CALM      30.09R
$$

KYZ035>037-039>044-047>052-055>060-089>105-230200-
NORTHEAST KENTUCKY

CITY           SKY/WX    TMP DP  RH WIND       PRES   REMARKS
LEXINGTON      CLEAR     68  57  68 SE6       30.12S
COVINGTON      CLEAR     69  59  70 S7        30.09S
FRANKFORT      CLEAR     68  59  73 CALM      30.10S
$$

KYZ054-064>069-076>088-106>120-230200-
SOUTHEAST KENTUCKY

CITY           SKY/WX    TMP DP  RH WIND       PRES   REMARKS
JACKSON        CLEAR     73  54  51 CALM      30.15R
LONDON         CLEAR     65  59  81 CALM      30.15R
SOMERSET       CLEAR     64  54  68 CALM      30.15R
MIDDLESBORO    CLEAR     62  60  94 CALM      30.17S
MONTICELLO     CLEAR     60  57  89 NW8       30.15R
$$





USA.gov is the U.S. government's official web portal to all federal, state and local government web resources and services.